Time,TemperatureF,DewpointF,PressureIn,WindDirection,WindDirectionDegrees,WindSpeedMPH,WindSpeedGustMPH,Humidity,HourlyPrecipIn,Conditions,Clouds,dailyrainin,SoftwareType,DateUTC
2013-02-01 00:02:00,-7.0,-14.0,-100.00,SSW,205,16.0,24.0,70,0.00,,,-99.99,,2013-02-01 06:02:00,
2013-02-01 00:11:00,-7.0,-14.0,-100.00,SW,215,18.0,22.0,70,0.00,,,-99.99,,2013-02-01 06:11:00,
2013-02-01 00:22:00,-7.0,-14.0,-100.00,WNW,295,15.0,26.0,70,0.00,,,-99.99,,2013-02-01 06:22:00,
2013-02-01 00:32:00,-8.0,-15.0,-100.00,WSW,240,17.0,24.0,70,0.00,,,-99.99,,2013-02-01 06:32:00,
2013-02-01 00:42:00,-8.0,-15.0,-100.00,WSW,240,17.0,24.0,70,0.00,,,-99.99,,2013-02-01 06:42:00,
2013-02-01 00:52:00,-8.0,-15.0,-100.00,SSW,200,16.0,26.0,70,0.00,,,-99.99,,2013-02-01 06:52:00,
2013-02-01 01:01:00,-8.0,-15.0,-100.00,SSW,200,16.0,26.0,70,0.00,,,-99.99,,2013-02-01 07:01:00,
2013-02-01 01:12:00,-8.0,-15.0,-100.00,WNW,290,16.0,19.0,70,0.00,,,-99.99,,2013-02-01 07:12:00,
2013-02-01 01:22:00,-8.0,-15.0,-100.00,SW,215,16.0,26.0,70,0.00,,,-99.99,,2013-02-01 07:22:00,
2013-02-01 01:32:00,-9.0,-15.0,-100.00,SW,220,15.0,19.0,70,0.00,,,-99.99,,2013-02-01 07:32:00,
2013-02-01 01:41:00,-9.0,-15.0,-100.00,SW,220,15.0,19.0,70,0.00,,,-99.99,,2013-02-01 07:41:00,
2013-02-01 01:51:00,-9.0,-16.0,-100.00,SSW,205,11.0,19.0,70,0.00,,,-99.99,,2013-02-01 07:51:00,
2013-02-01 02:01:00,-9.0,-16.0,-100.00,SSW,205,11.0,19.0,70,0.00,,,-99.99,,2013-02-01 08:01:00,
2013-02-01 02:11:00,-9.0,-16.0,-100.00,West,275,13.0,17.0,70,0.00,,,-99.99,,2013-02-01 08:11:00,
2013-02-01 02:21:00,-9.0,-16.0,-100.00,SSW,210,13.0,19.0,70,0.00,,,-99.99,,2013-02-01 08:21:00,
2013-02-01 02:32:00,-9.0,-16.0,-100.00,SSW,210,14.0,17.0,70,0.00,,,-99.99,,2013-02-01 08:32:00,
2013-02-01 02:42:00,-9.0,-16.0,-100.00,SSW,210,14.0,17.0,70,0.00,,,-99.99,,2013-02-01 08:42:00,
2013-02-01 02:52:00,-9.0,-16.0,-100.00,SW,215,8.0,13.0,71,0.00,,,-99.99,,2013-02-01 08:52:00,
2013-02-01 03:01:00,-9.0,-16.0,-100.00,SW,215,8.0,13.0,71,0.00,,,-99.99,,2013-02-01 09:01:00,
2013-02-01 03:11:00,-9.0,-16.0,-100.00,SW,215,8.0,13.0,71,0.00,,,-99.99,,2013-02-01 09:11:00,
2013-02-01 03:21:00,-9.0,-16.0,-100.00,WNW,290,9.0,16.0,71,0.00,,,-99.99,,2013-02-01 09:21:00,
2013-02-01 03:32:00,-9.0,-16.0,-100.00,West,280,10.0,14.0,71,0.00,,,-99.99,,2013-02-01 09:32:00,
2013-02-01 03:41:00,-9.0,-16.0,-100.00,West,280,10.0,14.0,71,0.00,,,-99.99,,2013-02-01 09:41:00,
2013-02-01 03:52:00,-9.0,-16.0,-100.00,West,280,13.0,16.0,71,0.00,,,-99.99,,2013-02-01 09:52:00,
2013-02-01 04:01:00,-9.0,-16.0,-100.00,West,280,13.0,16.0,71,0.00,,,-99.99,,2013-02-01 10:01:00,
2013-02-01 04:11:00,-9.0,-16.0,-100.00,West,270,13.0,17.0,71,0.00,,,-99.99,,2013-02-01 10:11:00,
2013-02-01 04:21:00,-9.0,-16.0,-100.00,WNW,285,12.0,16.0,71,0.00,,,-99.99,,2013-02-01 10:21:00,
2013-02-01 04:31:00,-9.0,-16.0,-100.00,WNW,290,11.0,16.0,71,0.00,,,-99.99,,2013-02-01 10:31:00,
2013-02-01 04:42:00,-9.0,-16.0,-100.00,WNW,290,11.0,16.0,71,0.00,,,-99.99,,2013-02-01 10:42:00,
2013-02-01 04:52:00,-9.0,-16.0,-100.00,West,280,11.0,14.0,71,0.00,,,-99.99,,2013-02-01 10:52:00,
2013-02-01 05:02:00,-9.0,-16.0,-100.00,West,280,11.0,14.0,71,0.00,,,-99.99,,2013-02-01 11:02:00,
2013-02-01 05:11:00,-10.0,-16.0,-100.00,WSW,255,9.0,15.0,71,0.00,,,-99.99,,2013-02-01 11:11:00,
2013-02-01 05:22:00,-10.0,-16.0,-100.00,WNW,290,11.0,14.0,71,0.00,,,-99.99,,2013-02-01 11:22:00,
2013-02-01 05:32:00,-10.0,-16.0,-100.00,West,280,9.0,14.0,71,0.00,,,-99.99,,2013-02-01 11:32:00,
2013-02-01 05:41:00,-10.0,-16.0,-100.00,West,280,9.0,14.0,71,0.00,,,-99.99,,2013-02-01 11:41:00,
2013-02-01 05:53:00,-10.0,-16.0,-100.00,WNW,290,8.0,14.0,72,0.00,,,-99.99,,2013-02-01 11:53:00,
2013-02-01 06:02:00,-10.0,-16.0,-100.00,WNW,290,8.0,14.0,72,0.00,,,-99.99,,2013-02-01 12:02:00,
2013-02-01 06:12:00,-9.0,-16.0,-100.00,SW,220,10.0,12.0,72,0.00,,,-99.99,,2013-02-01 12:12:00,
2013-02-01 06:22:00,-9.0,-16.0,-100.00,NW,305,9.0,11.0,72,0.00,,,-99.99,,2013-02-01 12:22:00,
2013-02-01 06:32:00,-9.0,-16.0,-100.00,WSW,240,9.0,12.0,72,0.00,,,-99.99,,2013-02-01 12:32:00,
2013-02-01 06:42:00,-9.0,-16.0,-100.00,WSW,240,9.0,12.0,72,0.00,,,-99.99,,2013-02-01 12:42:00,
2013-02-01 06:52:00,-9.0,-16.0,-100.00,West,260,8.0,12.0,72,0.00,,,-99.99,,2013-02-01 12:52:00,
2013-02-01 07:02:00,-9.0,-16.0,-100.00,West,260,8.0,12.0,72,0.00,,,-99.99,,2013-02-01 13:02:00,
2013-02-01 07:11:00,-9.0,-16.0,-100.00,WNW,300,8.0,11.0,72,0.00,,,-99.99,,2013-02-01 13:11:00,
2013-02-01 07:22:00,-10.0,-16.0,-100.00,WNW,290,7.0,10.0,72,0.00,,,-99.99,,2013-02-01 13:22:00,
2013-02-01 07:32:00,-9.0,-16.0,-100.00,NNW,335,6.0,9.0,72,0.00,,,-99.99,,2013-02-01 13:32:00,
2013-02-01 07:42:00,-9.0,-16.0,-100.00,NNW,335,6.0,9.0,72,0.00,,,-99.99,,2013-02-01 13:42:00,
2013-02-01 07:52:00,-10.0,-16.0,-100.00,West,280,1.0,4.0,72,0.00,,,-99.99,,2013-02-01 13:52:00,
2013-02-01 08:03:00,-10.0,-16.0,-100.00,West,280,1.0,4.0,72,0.00,,,-99.99,,2013-02-01 14:03:00,
2013-02-01 08:11:00,-10.0,-16.0,-100.00,West,280,1.0,4.0,72,0.00,,,-99.99,,2013-02-01 14:11:00,
2013-02-01 08:21:00,-9.0,-15.0,-100.00,West,270,5.0,6.0,72,0.00,,,-99.99,,2013-02-01 14:21:00,
2013-02-01 08:32:00,-7.0,-14.0,-100.00,West,275,6.0,7.0,71,0.00,,,-99.99,,2013-02-01 14:32:00,
2013-02-01 08:42:00,-7.0,-14.0,-100.00,West,275,6.0,7.0,71,0.00,,,-99.99,,2013-02-01 14:42:00,
2013-02-01 08:53:00,-5.0,-13.0,-100.00,West,270,7.0,9.0,68,0.00,,,-99.99,,2013-02-01 14:53:00,
2013-02-01 09:02:00,-5.0,-13.0,-100.00,West,270,7.0,9.0,68,0.00,,,-99.99,,2013-02-01 15:02:00,
2013-02-01 09:12:00,-4.0,-13.0,-100.00,West,280,7.0,11.0,66,0.00,,,-99.99,,2013-02-01 15:12:00,
2013-02-01 09:21:00,-4.0,-13.0,-100.00,West,265,6.0,11.0,65,0.00,,,-99.99,,2013-02-01 15:21:00,
2013-02-01 09:33:00,-3.0,-13.0,-100.00,WSW,240,7.0,9.0,63,0.00,,,-99.99,,2013-02-01 15:33:00,
2013-02-01 09:42:00,-3.0,-13.0,-100.00,WSW,240,7.0,9.0,63,0.00,,,-99.99,,2013-02-01 15:42:00,
2013-02-01 09:52:00,-2.0,-12.0,-100.00,WNW,290,7.0,9.0,62,0.00,,,-99.99,,2013-02-01 15:52:00,
2013-02-01 10:03:00,-2.0,-12.0,-100.00,WNW,290,7.0,9.0,62,0.00,,,-99.99,,2013-02-01 16:03:00,
2013-02-01 10:11:00,-1.0,-11.0,-100.00,West,260,5.0,8.0,61,0.00,,,-99.99,,2013-02-01 16:11:00,
2013-02-01 10:22:00,-1.0,-11.0,-100.00,West,280,6.0,8.0,59,0.00,,,-99.99,,2013-02-01 16:22:00,
2013-02-01 10:33:00,1.0,-11.0,-100.00,West,280,3.0,10.0,57,0.00,,,-99.99,,2013-02-01 16:33:00,
2013-02-01 10:42:00,1.0,-11.0,-100.00,West,280,3.0,10.0,57,0.00,,,-99.99,,2013-02-01 16:42:00,
2013-02-01 10:52:00,1.0,-11.0,-100.00,SW,230,4.0,9.0,57,0.00,,,-99.99,,2013-02-01 16:52:00,
2013-02-01 11:02:00,1.0,-11.0,-100.00,SW,230,4.0,9.0,57,0.00,,,-99.99,,2013-02-01 17:02:00,
2013-02-01 11:11:00,2.0,-10.0,-100.00,West,270,4.0,7.0,56,0.00,,,-99.99,,2013-02-01 17:11:00,
2013-02-01 11:22:00,2.0,-10.0,-100.00,SW,235,7.0,11.0,55,0.00,,,-99.99,,2013-02-01 17:22:00,
2013-02-01 11:32:00,3.0,-10.0,-100.00,SSW,210,6.0,11.0,55,0.00,,,-99.99,,2013-02-01 17:32:00,
2013-02-01 11:42:00,3.0,-10.0,-100.00,SSW,210,6.0,11.0,55,0.00,,,-99.99,,2013-02-01 17:42:00,
2013-02-01 11:52:00,4.0,-9.0,-100.00,SW,230,3.0,9.0,53,0.00,,,-99.99,,2013-02-01 17:52:00,
2013-02-01 12:02:00,4.0,-9.0,-100.00,SW,230,3.0,9.0,53,0.00,,,-99.99,,2013-02-01 18:02:00,
2013-02-01 12:12:00,6.0,-8.0,-100.00,SSW,210,4.0,11.0,53,0.00,,,-99.99,,2013-02-01 18:12:00,
2013-02-01 12:22:00,5.0,-9.0,-100.00,South,170,7.0,12.0,52,0.00,,,-99.99,,2013-02-01 18:22:00,
2013-02-01 12:32:00,6.0,-8.0,-100.00,SW,225,8.0,12.0,52,0.00,,,-99.99,,2013-02-01 18:32:00,
2013-02-01 12:42:00,6.0,-8.0,-100.00,SW,225,8.0,12.0,52,0.00,,,-99.99,,2013-02-01 18:42:00,
2013-02-01 12:52:00,7.0,-7.0,-100.00,SSW,205,6.0,12.0,52,0.00,,,-99.99,,2013-02-01 18:52:00,
2013-02-01 13:02:00,7.0,-7.0,-100.00,SSW,205,6.0,12.0,52,0.00,,,-99.99,,2013-02-01 19:02:00,
2013-02-01 13:11:00,7.0,-7.0,-100.00,SW,230,6.0,9.0,52,0.00,,,-99.99,,2013-02-01 19:11:00,
2013-02-01 13:21:00,7.0,-7.0,-100.00,SW,230,9.0,13.0,52,0.00,,,-99.99,,2013-02-01 19:21:00,
2013-02-01 13:32:00,7.0,-6.0,-100.00,WSW,240,7.0,11.0,52,0.00,,,-99.99,,2013-02-01 19:32:00,
2013-02-01 13:41:00,7.0,-6.0,-100.00,WSW,240,7.0,11.0,52,0.00,,,-99.99,,2013-02-01 19:41:00,
2013-02-01 13:51:00,9.0,-5.0,-100.00,SW,215,6.0,11.0,51,0.00,,,-99.99,,2013-02-01 19:51:00,
2013-02-01 14:02:00,9.0,-5.0,-100.00,SW,215,6.0,11.0,51,0.00,,,-99.99,,2013-02-01 20:02:00,
2013-02-01 14:11:00,9.0,-5.0,-100.00,South,185,6.0,11.0,51,0.00,,,-99.99,,2013-02-01 20:11:00,
2013-02-01 14:21:00,9.0,-5.0,-100.00,South,190,4.0,12.0,51,0.00,,,-99.99,,2013-02-01 20:21:00,
2013-02-01 14:31:00,10.0,-4.0,-100.00,SSE,160,6.0,14.0,53,0.00,,,-99.99,,2013-02-01 20:31:00,
2013-02-01 14:41:00,10.0,-4.0,-100.00,SSE,160,6.0,14.0,53,0.00,,,-99.99,,2013-02-01 20:41:00,
2013-02-01 14:52:00,9.0,-4.0,-100.00,SSE,165,11.0,15.0,56,0.00,,,-99.99,,2013-02-01 20:52:00,
2013-02-01 15:02:00,9.0,-4.0,-100.00,SSE,165,11.0,15.0,56,0.00,,,-99.99,,2013-02-01 21:02:00,
2013-02-01 15:11:00,8.0,-4.0,-100.00,South,170,12.0,15.0,57,0.00,,,-99.99,,2013-02-01 21:11:00,
2013-02-01 15:21:00,8.0,-3.0,-100.00,South,175,10.0,16.0,57,0.00,,,-99.99,,2013-02-01 21:21:00,
2013-02-01 15:32:00,8.0,-3.0,-100.00,SSE,165,13.0,17.0,57,0.00,,,-99.99,,2013-02-01 21:32:00,
2013-02-01 15:41:00,8.0,-3.0,-100.00,SSE,165,13.0,17.0,57,0.00,,,-99.99,,2013-02-01 21:41:00,
2013-02-01 15:52:00,9.0,-2.0,-100.00,South,170,14.0,17.0,59,0.00,,,-99.99,,2013-02-01 21:52:00,
2013-02-01 16:02:00,9.0,-2.0,-100.00,South,170,14.0,17.0,59,0.00,,,-99.99,,2013-02-01 22:02:00,
2013-02-01 16:11:00,9.0,-2.0,-100.00,South,180,7.0,17.0,59,0.00,,,-99.99,,2013-02-01 22:11:00,
2013-02-01 16:21:00,9.0,-1.0,-100.00,South,175,9.0,16.0,60,0.00,,,-99.99,,2013-02-01 22:21:00,
2013-02-01 16:32:00,10.0,-1.0,-100.00,South,175,12.0,18.0,61,0.00,,,-99.99,,2013-02-01 22:32:00,
2013-02-01 16:42:00,10.0,-1.0,-100.00,South,175,12.0,18.0,61,0.00,,,-99.99,,2013-02-01 22:42:00,
2013-02-01 16:51:00,10.0,0.0,-100.00,South,175,11.0,16.0,63,0.00,,,-99.99,,2013-02-01 22:51:00,
2013-02-01 17:01:00,10.0,0.0,-100.00,South,175,11.0,16.0,63,0.00,,,-99.99,,2013-02-01 23:01:00,
2013-02-01 17:11:00,10.0,0.0,-100.00,South,180,7.0,17.0,64,0.00,,,-99.99,,2013-02-01 23:11:00,
2013-02-01 17:21:00,10.0,0.0,-100.00,South,175,8.0,15.0,63,0.00,,,-99.99,,2013-02-01 23:21:00,
2013-02-01 17:31:00,9.0,0.0,-100.00,South,175,7.0,17.0,64,0.00,,,-99.99,,2013-02-01 23:31:00,
2013-02-01 17:41:00,9.0,0.0,-100.00,South,175,7.0,17.0,64,0.00,,,-99.99,,2013-02-01 23:41:00,
2013-02-01 17:52:00,9.0,0.0,-100.00,South,185,7.0,17.0,66,0.01,,,-99.99,,2013-02-01 23:52:00,
2013-02-01 18:02:00,9.0,0.0,-100.00,South,185,7.0,17.0,66,0.01,,,-99.99,,2013-02-02 00:02:00,
2013-02-01 18:11:00,9.0,1.0,-100.00,SSE,160,6.0,15.0,70,0.01,,,-99.99,,2013-02-02 00:11:00,
2013-02-01 18:21:00,9.0,2.0,-100.00,South,170,12.0,16.0,72,0.01,,,-99.99,,2013-02-02 00:21:00,
2013-02-01 18:32:00,9.0,3.0,-100.00,South,185,9.0,16.0,76,0.03,,,-99.99,,2013-02-02 00:32:00,
2013-02-01 18:41:00,9.0,3.0,-100.00,South,185,9.0,16.0,76,0.03,,,-99.99,,2013-02-02 00:41:00,
2013-02-01 18:52:00,9.0,3.0,-100.00,South,170,9.0,17.0,77,0.00,,,-99.99,,2013-02-02 00:52:00,
2013-02-01 19:02:00,9.0,3.0,-100.00,South,170,9.0,17.0,77,0.00,,,-99.99,,2013-02-02 01:02:00,
2013-02-01 19:11:00,9.0,4.0,-100.00,South,170,8.0,14.0,78,0.01,,,-99.99,,2013-02-02 01:11:00,
2013-02-01 19:21:00,9.0,3.0,-100.00,South,175,10.0,16.0,78,0.01,,,-99.99,,2013-02-02 01:21:00,
2013-02-01 19:32:00,9.0,4.0,-100.00,South,170,11.0,14.0,78,0.00,,,-99.99,,2013-02-02 01:32:00,
2013-02-01 19:41:00,9.0,4.0,-100.00,South,170,11.0,14.0,78,0.00,,,-99.99,,2013-02-02 01:41:00,
2013-02-01 19:52:00,9.0,4.0,-100.00,South,180,7.0,12.0,79,0.00,,,-99.99,,2013-02-02 01:52:00,
2013-02-01 20:01:00,9.0,4.0,-100.00,South,180,7.0,12.0,79,0.00,,,-99.99,,2013-02-02 02:01:00,
2013-02-01 20:11:00,9.0,4.0,-100.00,South,170,8.0,12.0,79,0.00,,,-99.99,,2013-02-02 02:11:00,
2013-02-01 20:21:00,9.0,4.0,-100.00,SSE,165,9.0,12.0,79,0.00,,,-99.99,,2013-02-02 02:21:00,
2013-02-01 20:32:00,9.0,4.0,-100.00,South,175,7.0,12.0,79,0.00,,,-99.99,,2013-02-02 02:32:00,
2013-02-01 20:41:00,9.0,4.0,-100.00,South,175,7.0,12.0,79,0.00,,,-99.99,,2013-02-02 02:41:00,
2013-02-01 20:52:00,9.0,4.0,-100.00,SSE,160,7.0,12.0,79,0.00,,,-99.99,,2013-02-02 02:52:00,
2013-02-01 21:02:00,9.0,4.0,-100.00,SSE,160,7.0,12.0,79,0.00,,,-99.99,,2013-02-02 03:02:00,
2013-02-01 21:11:00,9.0,4.0,-100.00,SE,145,4.0,8.0,79,0.00,,,-99.99,,2013-02-02 03:11:00,
2013-02-01 21:21:00,9.0,4.0,-100.00,SSE,165,6.0,9.0,79,0.00,,,-99.99,,2013-02-02 03:21:00,
2013-02-01 21:32:00,9.0,4.0,-100.00,SSE,150,4.0,12.0,79,0.00,,,-99.99,,2013-02-02 03:32:00,
2013-02-01 21:42:00,9.0,4.0,-100.00,SSE,150,4.0,12.0,79,0.00,,,-99.99,,2013-02-02 03:42:00,
2013-02-01 21:51:00,9.0,5.0,-100.00,SE,145,4.0,11.0,79,0.00,,,-99.99,,2013-02-02 03:51:00,
2013-02-01 22:01:00,9.0,5.0,-100.00,SE,145,4.0,11.0,79,0.00,,,-99.99,,2013-02-02 04:01:00,
2013-02-01 22:11:00,9.0,5.0,-100.00,SSE,160,7.0,11.0,80,0.00,,,-99.99,,2013-02-02 04:11:00,
2013-02-01 22:22:00,9.0,5.0,-100.00,SE,140,6.0,9.0,80,0.00,,,-99.99,,2013-02-02 04:22:00,
2013-02-01 22:32:00,9.0,5.0,-100.00,SE,140,6.0,9.0,81,0.00,,,-99.99,,2013-02-02 04:32:00,
2013-02-01 22:41:00,9.0,5.0,-100.00,SE,140,6.0,9.0,81,0.00,,,-99.99,,2013-02-02 04:41:00,
2013-02-01 22:51:00,9.0,5.0,-100.00,SE,135,6.0,7.0,82,0.00,,,-99.99,,2013-02-02 04:51:00,
2013-02-01 23:03:00,9.0,5.0,-100.00,SE,135,6.0,7.0,82,0.00,,,-99.99,,2013-02-02 05:03:00,
2013-02-01 23:12:00,9.0,5.0,-100.00,SE,135,6.0,8.0,82,0.00,,,-99.99,,2013-02-02 05:12:00,
2013-02-01 23:22:00,9.0,5.0,-100.00,SE,130,6.0,8.0,82,0.00,,,-99.99,,2013-02-02 05:22:00,
2013-02-01 23:33:00,10.0,6.0,-100.00,SE,145,5.0,7.0,83,0.00,,,-99.99,,2013-02-02 05:33:00,
2013-02-01 23:41:00,10.0,6.0,-100.00,SE,145,5.0,7.0,83,0.00,,,-99.99,,2013-02-02 05:41:00,
2013-02-01 23:52:00,10.0,6.0,-100.00,SSE,155,6.0,7.0,83,0.00,,,-99.99,,2013-02-02 05:52:00,